PRDJN SBCA-SBCG

Flight info

Callsign PRDJN
Flight time N/A
Altitude 24000
Route CAV DCT DOU DCT GRD
Aircraft SF50/L-SDGRWY/L

Departure

Time N/A
Airport Coronel Adalberto Mendes da Silva Airport (SBCA)

Arrival

Time 2026-04-20 18:23
Airport Campo Grande Airport (SBCG)
Time Latitude Longitude Altitude Speed Heading
2026-04-20 17:36 -23.98364 -54.02859 23945 ft 276 kts 343°
2026-04-20 17:36 -23.95119 -54.03711 23949 ft 277 kts 343°
2026-04-20 17:37 -23.89012 -54.05306 23946 ft 278 kts 343°
2026-04-20 17:37 -23.85746 -54.06163 23948 ft 279 kts 343°
2026-04-20 17:38 -23.75181 -54.08921 23935 ft 279 kts 343°
2026-04-20 17:38 -23.73294 -54.09416 23934 ft 279 kts 343°
2026-04-20 17:38 -23.71384 -54.09913 23934 ft 279 kts 343°
2026-04-20 17:39 -23.69500 -54.10406 23938 ft 279 kts 343°
2026-04-20 17:39 -23.67595 -54.10902 23942 ft 279 kts 343°
2026-04-20 17:39 -23.65707 -54.11395 23947 ft 279 kts 343°
2026-04-20 17:39 -23.63827 -54.11886 23943 ft 279 kts 343°
2026-04-20 17:40 -23.61938 -54.12375 23944 ft 279 kts 343°
2026-04-20 17:40 -23.60033 -54.12872 23941 ft 280 kts 343°
2026-04-20 17:40 -23.58127 -54.13368 23938 ft 280 kts 342°
2026-04-20 17:40 -23.56245 -54.13857 23939 ft 280 kts 343°
2026-04-20 17:41 -23.54339 -54.14357 23941 ft 279 kts 343°
2026-04-20 17:41 -23.52461 -54.14843 23945 ft 279 kts 343°
2026-04-20 17:41 -23.50550 -54.15344 23947 ft 279 kts 343°
2026-04-20 17:41 -23.48673 -54.15828 23949 ft 279 kts 343°
2026-04-20 17:42 -23.46767 -54.16322 23949 ft 279 kts 343°
2026-04-20 17:42 -23.44872 -54.16817 23950 ft 279 kts 343°
2026-04-20 17:42 -23.42981 -54.17307 23943 ft 279 kts 343°
2026-04-20 17:42 -23.41092 -54.17799 23941 ft 280 kts 343°
2026-04-20 17:43 -23.39200 -54.18289 23945 ft 280 kts 343°
2026-04-20 17:43 -23.37289 -54.18786 23944 ft 280 kts 343°
2026-04-20 17:43 -23.35401 -54.19277 23945 ft 280 kts 343°
2026-04-20 17:43 -23.33487 -54.19769 23945 ft 280 kts 343°
2026-04-20 17:44 -23.31593 -54.20264 23947 ft 280 kts 343°
2026-04-20 17:44 -23.29699 -54.20752 23946 ft 280 kts 343°
2026-04-20 17:44 -23.27814 -54.21241 23944 ft 280 kts 343°
2026-04-20 17:44 -23.25906 -54.21738 23942 ft 280 kts 343°
2026-04-20 17:45 -23.23997 -54.22231 23943 ft 280 kts 343°
2026-04-20 17:45 -23.22121 -54.22718 23944 ft 280 kts 343°
2026-04-20 17:45 -23.20219 -54.23209 23946 ft 280 kts 343°
2026-04-20 17:45 -23.18315 -54.23703 23946 ft 280 kts 343°
2026-04-20 17:46 -23.16400 -54.24197 23943 ft 280 kts 343°
2026-04-20 17:46 -23.14520 -54.24683 23944 ft 280 kts 343°
2026-04-20 17:46 -23.12621 -54.25176 23941 ft 280 kts 343°
2026-04-20 17:46 -23.10697 -54.25675 23944 ft 280 kts 343°
2026-04-20 17:47 -23.08805 -54.26159 23950 ft 280 kts 343°
2026-04-20 17:47 -23.06907 -54.26649 23954 ft 280 kts 343°
2026-04-20 17:47 -23.04995 -54.27144 23950 ft 280 kts 343°
2026-04-20 17:47 -23.03100 -54.27638 23948 ft 280 kts 343°
2026-04-20 17:48 -23.01191 -54.28128 23948 ft 280 kts 343°
2026-04-20 17:48 -22.99311 -54.28611 23950 ft 280 kts 343°
2026-04-20 17:48 -22.97402 -54.29107 23949 ft 280 kts 343°
2026-04-20 17:48 -22.95503 -54.29595 23944 ft 281 kts 343°
2026-04-20 17:49 -22.93574 -54.30091 23943 ft 281 kts 343°
2026-04-20 17:49 -22.91676 -54.30581 23936 ft 281 kts 343°
2026-04-20 17:49 -22.89771 -54.31071 23932 ft 281 kts 343°
2026-04-20 17:49 -22.87863 -54.31563 23939 ft 281 kts 343°
2026-04-20 17:50 -22.85949 -54.32058 23937 ft 281 kts 343°
2026-04-20 17:50 -22.84036 -54.32550 23938 ft 281 kts 343°
2026-04-20 17:50 -22.82146 -54.33034 23944 ft 281 kts 343°
2026-04-20 17:50 -22.80232 -54.33529 23939 ft 281 kts 343°
2026-04-20 17:51 -22.78320 -54.34019 23940 ft 281 kts 343°
2026-04-20 17:51 -22.76411 -54.34511 23940 ft 281 kts 343°
2026-04-20 17:51 -22.74495 -54.35004 23933 ft 281 kts 343°
2026-04-20 17:51 -22.72584 -54.35493 23940 ft 281 kts 343°
2026-04-20 17:52 -22.70673 -54.35985 23941 ft 281 kts 343°
2026-04-20 17:52 -22.68775 -54.36472 23942 ft 281 kts 343°
2026-04-20 17:52 -22.66871 -54.36963 23939 ft 281 kts 343°
2026-04-20 17:52 -22.64971 -54.37449 23940 ft 282 kts 343°
2026-04-20 17:53 -22.63035 -54.37945 23941 ft 281 kts 343°
2026-04-20 17:53 -22.61141 -54.38433 23941 ft 281 kts 343°
2026-04-20 17:53 -22.59218 -54.38924 23946 ft 281 kts 343°
2026-04-20 17:53 -22.57304 -54.39417 23944 ft 281 kts 343°
2026-04-20 17:54 -22.35809 -54.44896 23915 ft 282 kts 342°
2026-04-20 17:54 -22.05594 -54.52650 23892 ft 282 kts 344°
2026-04-20 17:54 -21.93402 -54.55716 23930 ft 280 kts 343°
2026-04-20 17:54 -21.91478 -54.56211 23936 ft 281 kts 342°
2026-04-20 17:55 -21.89574 -54.56692 23943 ft 281 kts 343°
2026-04-20 17:55 -21.87655 -54.57182 23940 ft 282 kts 342°
2026-04-20 17:55 -21.85756 -54.57666 23846 ft 286 kts 343°
2026-04-20 17:55 -21.83835 -54.58153 23535 ft 276 kts 343°
2026-04-20 17:56 -21.82002 -54.58612 23221 ft 266 kts 343°
2026-04-20 17:56 -21.80215 -54.59065 22897 ft 258 kts 343°
2026-04-20 17:56 -21.78509 -54.59501 22586 ft 251 kts 342°
2026-04-20 17:56 -21.76821 -54.59926 22279 ft 245 kts 342°
2026-04-20 17:57 -21.75176 -54.60347 21974 ft 240 kts 343°
2026-04-20 17:57 -21.73570 -54.60750 21668 ft 236 kts 342°
2026-04-20 17:57 -21.71974 -54.61156 21362 ft 232 kts 343°
2026-04-20 17:57 -21.70413 -54.61552 21058 ft 230 kts 343°
2026-04-20 17:58 -21.68872 -54.61946 20768 ft 227 kts 343°
2026-04-20 17:58 -21.67330 -54.62334 20465 ft 225 kts 343°
2026-04-20 17:58 -21.65802 -54.62722 20161 ft 224 kts 344°
2026-04-20 17:58 -21.64284 -54.63106 19863 ft 223 kts 344°
2026-04-20 17:59 -21.62786 -54.63485 19567 ft 221 kts 345°
2026-04-20 17:59 -21.61283 -54.63866 19271 ft 222 kts 345°
2026-04-20 17:59 -21.59783 -54.64245 18980 ft 222 kts 346°
2026-04-20 17:59 -21.58283 -54.64624 18694 ft 222 kts 346°
2026-04-20 18:00 -21.56773 -54.65004 18397 ft 222 kts 347°
2026-04-20 18:00 -21.55264 -54.65387 18098 ft 222 kts 347°
2026-04-20 18:00 -21.53758 -54.65768 17808 ft 222 kts 347°
2026-04-20 18:00 -21.52256 -54.66146 17509 ft 222 kts 347°
2026-04-20 18:01 -21.50741 -54.66528 17217 ft 221 kts 347°
2026-04-20 18:01 -21.49240 -54.66905 16922 ft 221 kts 348°
2026-04-20 18:01 -21.47744 -54.67282 16631 ft 220 kts 347°
2026-04-20 18:01 -21.46247 -54.67660 16336 ft 220 kts 348°
2026-04-20 18:02 -21.44770 -54.68033 16048 ft 221 kts 347°
2026-04-20 18:02 -21.43262 -54.68413 15763 ft 223 kts 348°
2026-04-20 18:02 -21.41742 -54.68795 15477 ft 224 kts 348°
2026-04-20 18:02 -21.40218 -54.69181 15190 ft 224 kts 348°
2026-04-20 18:03 -21.38695 -54.69563 14904 ft 225 kts 348°
2026-04-20 18:03 -21.37167 -54.69949 14617 ft 225 kts 348°
2026-04-20 18:03 -21.35647 -54.70331 14332 ft 225 kts 348°
2026-04-20 18:03 -21.34110 -54.70718 14043 ft 226 kts 347°
2026-04-20 18:04 -21.32586 -54.71102 13758 ft 226 kts 348°
2026-04-20 18:04 -21.31045 -54.71490 13472 ft 226 kts 348°
2026-04-20 18:04 -21.29527 -54.71872 13186 ft 226 kts 348°
2026-04-20 18:04 -21.27974 -54.72263 12901 ft 226 kts 348°
2026-04-20 18:05 -21.24924 -54.73031 12352 ft 225 kts 348°
2026-04-20 18:05 -21.23407 -54.73412 12079 ft 224 kts 348°
2026-04-20 18:05 -21.21869 -54.73798 11803 ft 224 kts 348°
2026-04-20 18:06 -21.20356 -54.74179 11525 ft 223 kts 348°
2026-04-20 18:06 -21.18854 -54.74557 11250 ft 223 kts 348°
2026-04-20 18:06 -21.17334 -54.74939 10957 ft 223 kts 348°
2026-04-20 18:06 -21.15824 -54.75318 10677 ft 222 kts 348°
2026-04-20 18:07 -21.14325 -54.75694 10405 ft 221 kts 348°
2026-04-20 18:07 -21.12830 -54.76070 10125 ft 220 kts 348°
2026-04-20 18:07 -21.11334 -54.76445 9835 ft 219 kts 349°
2026-04-20 18:07 -21.09850 -54.76819 9550 ft 219 kts 349°
2026-04-20 18:08 -21.08375 -54.77189 9268 ft 218 kts 348°
2026-04-20 18:08 -21.06880 -54.77563 8971 ft 218 kts 348°
2026-04-20 18:08 -21.05418 -54.77931 8667 ft 217 kts 348°
2026-04-20 18:08 -21.03936 -54.78302 8355 ft 217 kts 348°
2026-04-20 18:09 -21.02456 -54.78675 8034 ft 217 kts 348°
2026-04-20 18:09 -21.01001 -54.79037 7732 ft 217 kts 348°
2026-04-20 18:09 -20.99534 -54.79405 7432 ft 216 kts 348°
2026-04-20 18:09 -20.98060 -54.79774 7118 ft 216 kts 348°
2026-04-20 18:10 -20.96591 -54.80142 6806 ft 216 kts 348°
2026-04-20 18:10 -20.95125 -54.80509 6495 ft 216 kts 348°
2026-04-20 18:10 -20.93827 -54.80834 6214 ft 216 kts 348°
2026-04-20 18:10 -20.92374 -54.81200 5907 ft 215 kts 348°
2026-04-20 18:11 -20.90893 -54.81572 5590 ft 215 kts 348°
2026-04-20 18:11 -20.89450 -54.81935 5277 ft 215 kts 348°
2026-04-20 18:11 -20.87983 -54.82301 5005 ft 212 kts 348°
2026-04-20 18:11 -20.86579 -54.82653 4938 ft 201 kts 349°
2026-04-20 18:12 -20.85246 -54.82985 4925 ft 192 kts 349°
2026-04-20 18:12 -20.83948 -54.83310 4925 ft 191 kts 349°
2026-04-20 18:12 -20.82636 -54.83637 4939 ft 192 kts 349°
2026-04-20 18:12 -20.81328 -54.83963 4947 ft 195 kts 349°
2026-04-20 18:13 -20.80003 -54.84295 4949 ft 197 kts 349°
2026-04-20 18:13 -20.78644 -54.84634 4945 ft 198 kts 348°
2026-04-20 18:13 -20.77305 -54.84970 4943 ft 199 kts 348°
2026-04-20 18:13 -20.75953 -54.85308 4942 ft 200 kts 348°
2026-04-20 18:14 -20.74584 -54.85650 4942 ft 201 kts 348°
2026-04-20 18:14 -20.73202 -54.85995 4943 ft 202 kts 348°
2026-04-20 18:14 -20.71836 -54.86337 4945 ft 202 kts 348°
2026-04-20 18:14 -20.70467 -54.86680 4922 ft 203 kts 349°
2026-04-20 18:15 -20.69099 -54.87020 4798 ft 199 kts 349°
2026-04-20 18:15 -20.67744 -54.87103 4662 ft 193 kts 21°
2026-04-20 18:15 -20.66723 -54.86216 4572 ft 189 kts 42°
2026-04-20 18:15 -20.65769 -54.85266 4454 ft 187 kts 41°
2026-04-20 18:16 -20.64812 -54.84344 4335 ft 185 kts 41°
2026-04-20 18:16 -20.63851 -54.83431 4213 ft 183 kts 40°
2026-04-20 18:16 -20.62902 -54.82537 4094 ft 182 kts 40°
2026-04-20 18:16 -20.61954 -54.81642 3987 ft 179 kts 40°
2026-04-20 18:17 -20.61039 -54.80780 3959 ft 172 kts 40°
2026-04-20 18:17 -20.60156 -54.79950 3957 ft 165 kts 40°
2026-04-20 18:17 -20.59309 -54.79152 3955 ft 158 kts 40°
2026-04-20 18:17 -20.58491 -54.78384 3960 ft 152 kts 40°
2026-04-20 18:18 -20.57728 -54.77665 3934 ft 141 kts 41°
2026-04-20 18:18 -20.57013 -54.76979 3838 ft 137 kts 40°
2026-04-20 18:18 -20.56316 -54.76267 3670 ft 139 kts 42°
2026-04-20 18:18 -20.55590 -54.75563 3470 ft 141 kts 39°
2026-04-20 18:19 -20.54849 -54.74885 3271 ft 139 kts 39°
2026-04-20 18:19 -20.54111 -54.74224 3090 ft 137 kts 39°
2026-04-20 18:19 -20.53408 -54.73565 2952 ft 131 kts 40°
2026-04-20 18:19 -20.52788 -54.72946 2988 ft 120 kts 41°
2026-04-20 18:20 -20.52196 -54.72348 3002 ft 105 kts 41°
2026-04-20 18:20 -20.51649 -54.71827 2898 ft 106 kts 39°
2026-04-20 18:20 -20.51087 -54.71299 2777 ft 108 kts 38°
2026-04-20 18:20 -20.50514 -54.70769 2645 ft 110 kts 39°
2026-04-20 18:21 -20.49947 -54.70233 2467 ft 109 kts 39°
2026-04-20 18:21 -20.49381 -54.69679 2261 ft 110 kts 39°
2026-04-20 18:21 -20.48827 -54.69150 2126 ft 106 kts 37°
2026-04-20 18:21 -20.48273 -54.68623 1987 ft 107 kts 38°
2026-04-20 18:22 -20.47731 -54.68100 1862 ft 101 kts 38°
2026-04-20 18:22 -20.47259 -54.67643 1838 ft 80 kts 41°
2026-04-20 18:22 -20.46892 -54.67290 1838 ft 62 kts 42°
2026-04-20 18:22 -20.46600 -54.67009 1838 ft 50 kts 41°
2026-04-20 18:23 -20.46359 -54.66779 1838 ft 43 kts 43°
2026-04-20 18:23 -20.46193 -54.66614 1838 ft 23 kts 57°
2026-04-20 18:23 -20.46205 -54.66491 1838 ft 15 kts 130°
2026-04-20 18:23 -20.46259 -54.66411 1838 ft 8 kts 92°
2026-04-20 18:24 -20.46267 -54.66340 1838 ft 10 kts 102°
2026-04-20 18:24 -20.46289 -54.66280 1838 ft 7 kts 124°
2026-04-20 18:24 -20.46309 -54.66240 1838 ft 2 kts 41°
2026-04-20 18:24 -20.46304 -54.66241 1838 ft 0 kts 305°